Wind_Speed
11 12 12 11 11 11 11 11 10 10 10 10 10 10 10 9 9 9 8 8 7 6 6 6 5 4 4 4 4 3 2 2 2 1 1 1 1 1 1 2 3 3 4
13 13 13 13 13 13 13 12 12 11 11 11 11 11 11 11 10 10 9 9 8 7 7 6 6 6 5 4 4 4 4 3 3 2 2 1 1 1 1 1 2 3 3
15 14 14 14 14 14 14 14 14 13 13 13 12 12 12 12 12 11 11 10 9 9 8 8 7 7 6 5 5 5 5 4 4 4 3 3 3 2 1 1 2 2 2
16 16 16 15 15 15 15 15 15 15 14 14 13 12 13 13 13 13 12 12 11 11 10 9 9 8 7 7 6 6 6 5 5 5 5 4 4 3 2 2 1 1 2
18 18 18 18 17 17 17 17 17 16 16 15 14 14 13 13 13 13 13 13 13 12 12 11 10 10 9 8 8 7 7 6 6 6 6 6 5 4 4 3 2 2 2
20 20 21 20 19 19 19 19 19 18 17 17 16 16 14 14 14 14 14 14 13 13 13 12 12 11 11 10 10 9 8 8 7 7 6 6 6 6 5 4 4 3 3
22 22 22 22 22 21 21 20 20 19 19 18 18 17 17 16 15 15 14 14 14 14 13 13 13 13 13 12 12 11 10 10 9 8 8 8 8 7 6 6 5 4 4
24 24 24 23 24 23 23 22 21 21 21 20 19 19 18 18 17 16 16 15 15 15 15 14 15 15 14 14 13 13 12 11 11 10 10 9 9 9 8 7 7 6 5
27 27 26 26 25 25 24 24 23 23 22 22 22 21 21 20 19 19 18 17 17 16 16 16 15 16 16 15 15 15 14 13 13 12 12 11 11 10 10 9 8 7 7
28 28 29 28 27 26 26 26 25 24 24 24 24 23 22 22 22 21 20 20 19 18 18 18 18 18 18 17 17 17 16 16 15 15 14 14 13 13 12 11 11 10 9
31 30 30 30 29 29 28 28 28 27 27 27 26 25 25 24 24 23 22 22 21 20 20 20 20 20 20 20 20 19 19 18 18 17 17 16 16 15 15 14 13 12 11
33 33 32 32 32 32 31 31 31 31 30 29 29 28 27 26 26 26 25 25 24 23 22 22 22 23 23 23 22 22 21 21 20 20 19 19 18 17 17 16 15 14 13
35 35 35 35 35 35 35 34 34 33 33 33 32 31 30 30 28 29 28 28 27 26 25 25 25 25 25 25 25 25 24 24 23 22 22 21 20 20 19 18 17 16 16
37 37 37 37 37 37 37 37 37 36 36 35 35 35 33 32 31 30 31 31 30 29 28 28 27 27 27 27 27 27 26 26 25 25 24 24 23 22 21 21 20 19 18
38 39 39 39 39 39 39 39 39 39 38 37 37 37 36 35 35 33 33 33 33 32 31 31 30 29 29 29 29 29 29 28 28 27 27 26 25 25 24 24 23 22 21
40 40 40 41 41 41 41 41 41 41 40 40 39 39 39 38 37 37 36 36 36 35 34 34 33 33 32 31 31 31 31 31 30 30 29 29 28 27 26 26 26 25 24
40 41 41 42 42 42 42 42 42 42 42 42 41 41 41 41 40 40 39 38 38 38 38 37 36 35 35 35 34 33 33 33 33 32 32 32 31 30 29 28 28 27 26
40 41 42 42 42 42 42 43 43 43 43 43 43 43 43 42 42 42 42 40 40 40 40 39 39 38 38 37 36 36 35 35 36 35 35 34 34 33 32 31 31 30 29
40 41 42 42 42 42 42 43 43 44 45 44 44 44 44 44 44 44 44 43 43 42 42 41 41 41 40 40 40 39 38 38 38 38 38 37 37 36 36 35 33 32 32
40 41 43 43 43 43 43 43 44 44 45 45 45 45 45 45 46 45 45 45 45 44 44 43 43 43 42 42 42 42 41 41 40 40 40 39 39 38 38 37 36 35 34
39 41 42 43 44 44 45 45 45 45 45 45 46 46 46 46 47 47 47 47 46 46 46 45 45 45 44 44 44 44 43 42 41 41 41 41 40 40 39 39 38 37 37
39 40 41 43 44 44 45 46 46 45 45 46 46 46 47 48 48 49 49 48 48 48 48 48 48 47 46 46 46 46 45 44 43 43 42 42 42 41 41 41 41 40 39
39 39 41 43 44 44 45 46 46 45 45 46 47 47 47 48 49 50 50 50 50 51 51 51 51 50 48 47 47 47 47 46 45 44 44 44 44 44 43 43 43 42 41
39 40 42 43 44 44 45 46 47 46 46 47 47 48 48 49 50 51 52 52 51 52 51 51 51 51 50 49 48 49 49 48 48 47 46 46 46 46 45 45 45 44 43
40 41 42 42 44 44 45 46 46 47 47 47 48 48 48 49 51 52 53 52 53 53 52 51 52 51 51 51 50 51 51 50 50 49 49 49 49 48 47 47 47 46 46
40 41 42 43 44 44 44 45 46 47 47 48 49 49 49 50 51 52 53 53 53 53 53 52 52 52 51 52 51 51 51 51 50 50 50 50 50 50 50 49 49 49 48
Wind_Direction
240 237 236 236 236 238 241 241 242 240 240 240 238 236 234 236 237 237 235 236 236 233 234 236 234 235 235 233 236 248 266 274 280 305 315 334 355 9 23 27 35 36 36
245 242 241 238 239 240 243 243 243 245 244 247 248 245 241 242 242 243 241 242 244 242 242 243 240 238 239 238 239 244 251 260 264 268 269 273 276 284 332 0 17 21 27
245 245 243 243 242 243 244 246 247 249 249 249 250 250 248 247 246 246 245 245 246 247 248 249 246 244 244 245 246 246 248 253 257 257 255 258 260 263 276 320 350 6 13
247 246 245 244 243 244 246 248 248 249 250 251 250 251 249 249 247 247 246 246 247 248 250 251 249 247 246 247 250 251 249 252 256 254 253 251 251 254 258 273 308 347 355
249 247 246 246 245 245 246 249 249 249 249 249 251 250 250 250 249 248 247 247 247 248 248 249 250 249 249 249 250 252 254 253 255 253 251 248 245 249 252 261 272 303 327
250 248 247 246 245 246 248 250 250 250 250 249 250 250 250 251 251 250 248 248 248 248 249 250 249 249 250 250 251 252 255 255 255 256 253 248 244 247 249 255 266 280 293
250 249 248 248 247 247 248 250 250 250 250 250 249 250 250 250 250 250 249 248 247 247 248 250 250 249 249 250 251 253 254 254 253 254 256 252 245 245 246 250 259 268 280
250 250 251 250 250 250 251 251 251 251 251 253 252 251 251 252 252 253 252 251 249 248 250 250 249 248 248 249 249 250 252 253 253 253 254 253 250 246 247 250 254 258 267
251 250 251 252 252 252 253 253 251 251 253 254 253 253 252 252 252 253 254 254 252 250 251 251 250 250 251 250 250 251 252 252 254 254 252 252 251 249 248 250 251 252 258
251 251 251 251 252 253 254 254 253 253 254 254 254 253 253 253 254 254 254 254 254 253 253 253 253 252 253 252 252 253 253 253 253 254 253 252 252 251 251 251 252 254 257
253 252 252 252 252 253 254 254 254 255 255 255 255 254 255 255 254 254 254 254 254 254 254 254 253 253 253 253 252 254 255 254 254 254 253 252 252 251 252 252 252 254 256
253 253 253 253 253 254 255 255 254 255 256 256 255 255 255 255 255 255 255 255 255 256 255 255 255 254 254 255 254 254 255 256 255 254 253 252 252 252 252 252 252 252 255
252 252 253 253 254 255 256 256 255 255 256 255 255 255 255 255 255 255 255 255 256 256 257 257 256 256 256 256 256 256 255 255 256 254 252 252 251 251 252 252 253 252 253
253 253 253 254 255 256 256 256 255 255 256 255 256 256 256 255 255 256 256 256 256 257 257 258 257 257 257 257 257 256 256 255 256 255 252 251 250 250 251 252 253 253 254
255 254 254 254 255 256 256 256 256 256 257 256 256 257 256 256 256 256 256 256 256 257 258 258 258 257 257 258 258 257 257 256 256 255 252 250 250 249 250 251 252 253 254
257 255 254 255 255 256 256 257 257 256 256 256 256 257 256 257 257 256 257 256 256 257 258 259 259 258 258 258 258 258 257 257 256 255 253 251 250 249 250 251 251 253 253
257 256 256 256 256 256 256 255 256 257 256 256 257 256 256 257 257 258 258 256 256 257 257 258 259 259 258 258 258 258 258 257 256 255 253 252 251 250 250 251 251 253 254
258 257 256 257 257 256 256 256 257 258 257 257 257 257 256 256 257 259 258 257 257 257 257 257 257 258 258 258 258 258 258 257 256 255 253 252 252 251 251 251 251 252 252
259 259 257 257 257 257 257 257 258 258 258 258 257 256 256 257 258 258 258 258 257 256 256 256 256 257 258 258 257 257 257 257 256 254 253 253 252 252 252 251 251 251 251
260 259 258 256 257 257 258 258 259 259 259 259 257 256 256 257 258 258 258 259 258 256 256 257 257 257 258 258 257 257 258 256 256 255 254 253 252 252 252 251 251 251 251
261 260 259 257 257 258 259 259 259 259 259 258 257 256 256 256 258 258 258 259 259 258 257 257 258 258 258 258 257 257 257 257 256 255 253 252 251 251 251 250 250 251 250
261 261 259 259 258 259 259 259 259 259 259 258 257 257 257 257 258 258 258 260 259 259 259 259 259 259 259 258 257 256 256 256 255 254 253 252 251 251 251 250 250 251 250
263 263 261 260 260 260 260 260 258 258 260 258 257 257 257 258 258 258 258 259 260 260 261 260 259 259 259 258 258 257 256 256 255 254 253 252 251 251 252 251 251 250 250
264 264 262 262 262 262 261 260 260 259 260 259 258 258 258 259 259 259 259 259 260 261 261 261 260 259 258 258 258 258 257 256 255 254 253 252 252 251 251 252 251 250 250
266 265 264 263 263 262 262 262 262 261 260 259 258 260 260 260 260 260 259 259 259 260 260 259 259 259 258 258 258 258 257 256 256 254 252 252 251 251 251 251 251 250 250
268 267 266 265 264 263 263 263 262 262 261 259 259 261 260 261 260 259 259 259 259 258 259 258 258 258 258 258 258 258 257 256 256 255 253 252 251 251 251 251 252 251 250
Height
5835 5835 5836 5837 5838 5839 5840 5841 5841 5842 5842 5842 5843 5843 5844 5844 5845 5845 5846 5846 5846 5847 5847 5848 5848 5849 5849 5849 5850 5850 5850 5850 5851 5851 5851 5851 5851 5851 5851 5851 5851 5851 5850
5832 5833 5834 5835 5836 5837 5838 5839 5840 5840 5841 5841 5841 5842 5842 5843 5843 5844 5845 5845 5845 5846 5846 5847 5847 5848 5848 5848 5849 5849 5850 5850 5850 5850 5851 5851 5851 5851 5851 5851 5851 5851 5850
5830 5831 5832 5833 5834 5835 5836 5837 5838 5838 5839 5839 5840 5840 5840 5841 5842 5842 5843 5844 5844 5845 5845 5846 5846 5847 5847 5848 5848 5849 5849 5849 5849 5850 5850 5851 5851 5851 5851 5851 5851 5851 5850
5827 5828 5829 5830 5831 5832 5834 5835 5835 5836 5837 5837 5838 5838 5838 5839 5840 5840 5841 5842 5842 5843 5844 5844 5845 5846 5846 5847 5847 5848 5848 5848 5849 5849 5849 5850 5850 5850 5850 5850 5850 5850 5850
5824 5825 5826 5827 5828 5829 5831 5832 5833 5833 5834 5835 5835 5836 5836 5837 5837 5838 5839 5839 5840 5841 5842 5843 5843 5844 5845 5845 5846 5846 5847 5847 5848 5848 5848 5849 5849 5850 5850 5850 5850 5850 5850
5821 5822 5823 5824 5825 5826 5827 5828 5829 5830 5831 5832 5833 5833 5834 5834 5835 5835 5836 5837 5838 5839 5840 5840 5841 5842 5842 5843 5844 5845 5845 5846 5846 5847 5847 5848 5848 5849 5849 5849 5849 5849 5849
5817 5818 5819 5820 5821 5822 5823 5824 5826 5827 5828 5829 5829 5830 5831 5831 5832 5833 5833 5834 5835 5836 5837 5838 5839 5839 5840 5841 5842 5843 5843 5844 5845 5845 5846 5846 5847 5847 5847 5848 5848 5848 5848
5812 5813 5814 5815 5816 5818 5819 5820 5821 5823 5824 5825 5826 5827 5827 5828 5829 5829 5830 5831 5832 5833 5834 5835 5836 5837 5838 5838 5839 5840 5841 5842 5842 5843 5844 5844 5845 5845 5846 5846 5846 5847 5847
5807 5808 5809 5811 5812 5813 5814 5815 5817 5818 5819 5820 5821 5822 5823 5824 5825 5826 5827 5828 5828 5829 5830 5831 5832 5834 5835 5835 5836 5837 5838 5839 5840 5841 5841 5842 5843 5843 5844 5844 5845 5845 5845
5801 5802 5804 5805 5806 5808 5809 5810 5811 5813 5814 5815 5816 5818 5819 5820 5821 5822 5823 5824 5825 5826 5827 5828 5829 5830 5831 5832 5833 5834 5835 5836 5837 5838 5838 5839 5840 5841 5841 5842 5843 5843 5844
5794 5795 5797 5799 5800 5802 5803 5804 5806 5807 5808 5809 5811 5812 5814 5815 5816 5817 5818 5819 5820 5821 5822 5823 5824 5826 5827 5828 5829 5830 5831 5832 5833 5834 5835 5836 5837 5838 5838 5839 5840 5841 5841
5787 5788 5790 5792 5794 5795 5796 5798 5799 5801 5802 5803 5805 5806 5808 5809 5810 5812 5813 5814 5815 5816 5817 5818 5820 5821 5822 5823 5825 5826 5827 5828 5829 5830 5831 5832 5833 5834 5835 5836 5837 5838 5838
5778 5780 5782 5784 5786 5787 5789 5790 5792 5794 5795 5797 5798 5800 5801 5803 5804 5806 5807 5808 5809 5811 5812 5813 5814 5816 5817 5818 5819 5821 5822 5823 5824 5825 5826 5827 5829 5830 5831 5832 5833 5834 5835
5769 5771 5773 5775 5777 5779 5781 5782 5784 5786 5787 5789 5791 5792 5794 5796 5798 5799 5801 5802 5803 5804 5806 5807 5808 5810 5811 5812 5813 5815 5816 5817 5819 5820 5821 5822 5824 5825 5826 5828 5829 5830 5831
5759 5762 5764 5766 5768 5769 5771 5773 5775 5776 5778 5780 5782 5784 5786 5788 5790 5792 5794 5795 5796 5797 5799 5800 5801 5803 5804 5805 5807 5808 5810 5811 5812 5814 5815 5817 5818 5819 5821 5823 5824 5825 5827
5749 5752 5753 5755 5757 5759 5761 5762 5764 5766 5768 5771 5773 5775 5777 5780 5782 5783 5785 5787 5788 5789 5791 5792 5794 5795 5797 5798 5799 5801 5802 5804 5805 5807 5808 5810 5812 5813 5815 5816 5818 5819 5821
5739 5741 5743 5745 5746 5748 5749 5751 5753 5755 5758 5760 5762 5765 5767 5770 5772 5774 5775 5777 5779 5780 5782 5784 5785 5786 5788 5790 5791 5793 5794 5796 5797 5799 5801 5802 5804 5806 5808 5810 5811 5813 5815
5728 5730 5732 5734 5735 5737 5739 5740 5742 5744 5747 5749 5752 5754 5757 5759 5762 5764 5765 5767 5769 5771 5772 5774 5776 5777 5779 5780 5782 5784 5785 5787 5788 5790 5792 5794 5796 5798 5800 5802 5804 5806 5808
5718 5720 5721 5723 5725 5726 5728 5730 5731 5733 5735 5738 5740 5743 5746 5748 5751 5753 5755 5757 5758 5760 5762 5764 5765 5767 5769 5770 5772 5774 5776 5777 5779 5780 5782 5784 5787 5789 5791 5794 5796 5798 5800
5707 5709 5710 5712 5714 5715 5717 5719 5720 5722 5723 5726 5728 5731 5734 5737 5739 5741 5743 5745 5747 5749 5751 5752 5754 5756 5758 5760 5761 5764 5765 5767 5768 5770 5772 5774 5777 5779 5782 5784 5787 5789 5792
5697 5698 5699 5701 5703 5704 5706 5707 5709 5711 5712 5714 5716 5719 5722 5724 5727 5729 5731 5733 5735 5737 5739 5741 5743 5744 5746 5748 5750 5752 5754 5755 5757 5759 5762 5764 5766 5769 5771 5774 5777 5780 5782
5686 5687 5689 5690 5691 5693 5694 5695 5697 5699 5700 5702 5704 5707 5709 5712 5714 5716 5719 5721 5723 5725 5727 5729 5730 5732 5734 5736 5737 5739 5742 5745 5746 5748 5750 5753 5756 5758 5761 5763 5766 5769 5772
5676 5677 5678 5679 5680 5681 5682 5684 5685 5687 5688 5690 5692 5695 5697 5699 5701 5703 5706 5708 5710 5712 5714 5716 5717 5719 5721 5723 5724 5726 5729 5732 5734 5737 5739 5742 5744 5747 5750 5753 5756 5759 5762
5666 5666 5667 5668 5669 5670 5671 5672 5673 5675 5676 5678 5680 5682 5684 5686 5688 5690 5692 5694 5696 5698 5700 5702 5703 5705 5708 5710 5712 5713 5716 5718 5721 5725 5728 5730 5732 5736 5739 5741 5744 5747 5751
5655 5655 5656 5657 5657 5658 5659 5660 5660 5662 5664 5665 5667 5669 5670 5672 5674 5676 5678 5680 5682 5683 5685 5688 5690 5692 5694 5696 5698 5700 5702 5704 5707 5711 5715 5718 5720 5723 5726 5729 5733 5736 5739
5644 5644 5645 5645 5646 5646 5647 5647 5648 5650 5651 5653 5654 5655 5657 5658 5660 5661 5663 5665 5667 5669 5671 5673 5676 5678 5679 5682 5684 5686 5688 5691 5694 5696 5700 5704 5707 5711 5714 5717 5720 5724 5727